Year,Month,Day,Hour,Minute,Value (Times are PST for temperature in C)
2016,06,15,00,00,10.30
2016,06,15,00,01,10.30
2016,06,15,00,02,10.30
2016,06,15,00,03,10.30
2016,06,15,00,04,10.30
2016,06,15,00,05,10.30
2016,06,15,00,06,10.20
2016,06,15,00,07,10.20
2016,06,15,00,08,10.20
2016,06,15,00,09,10.20
2016,06,15,00,10,10.20
2016,06,15,00,11,10.20
2016,06,15,00,12,10.20
2016,06,15,00,13,10.10
2016,06,15,00,14,10.10
2016,06,15,00,15,10.10
2016,06,15,00,16,10.10
2016,06,15,00,17,10.00
2016,06,15,00,18,10.00
2016,06,15,00,19,10.00
2016,06,15,00,20,10.00
2016,06,15,00,21,9.90
2016,06,15,00,22,9.90
2016,06,15,00,23,9.90
2016,06,15,00,24,9.90
2016,06,15,00,25,9.80
2016,06,15,00,26,9.80
2016,06,15,00,27,9.80
2016,06,15,00,28,9.70
2016,06,15,00,29,9.70
2016,06,15,00,30,9.70
2016,06,15,00,31,9.70
2016,06,15,00,32,9.70
2016,06,15,00,33,9.70
2016,06,15,00,34,9.70
2016,06,15,00,35,9.60
2016,06,15,00,36,9.60
2016,06,15,00,37,9.60
2016,06,15,00,38,9.60
2016,06,15,00,39,9.60
2016,06,15,00,40,9.50
2016,06,15,00,41,9.50
2016,06,15,00,42,9.50
2016,06,15,00,43,9.50
2016,06,15,00,44,9.50
2016,06,15,00,45,9.50
2016,06,15,00,46,9.50
2016,06,15,00,47,9.50
2016,06,15,00,48,9.50
2016,06,15,00,49,9.50
2016,06,15,00,50,9.40
2016,06,15,00,51,9.40
2016,06,15,00,52,9.40
2016,06,15,00,53,9.40
2016,06,15,00,54,9.40
2016,06,15,00,55,9.40
2016,06,15,00,56,9.40
2016,06,15,00,57,9.40
2016,06,15,00,58,9.40
2016,06,15,00,59,9.30
2016,06,15,01,00,9.30
2016,06,15,01,01,9.30
2016,06,15,01,02,9.30
2016,06,15,01,03,9.30
2016,06,15,01,04,9.30
2016,06,15,01,05,9.20
2016,06,15,01,06,9.20
2016,06,15,01,07,9.20
2016,06,15,01,08,9.20
2016,06,15,01,09,9.20
2016,06,15,01,10,9.20
2016,06,15,01,11,9.20
2016,06,15,01,12,9.10
2016,06,15,01,13,9.10
2016,06,15,01,14,9.10
2016,06,15,01,15,9.10
2016,06,15,01,16,9.10
2016,06,15,01,17,9.10
2016,06,15,01,18,9.10
2016,06,15,01,19,9.10
2016,06,15,01,20,9.10
2016,06,15,01,21,9.10
2016,06,15,01,22,9.20
2016,06,15,01,23,9.20
2016,06,15,01,24,9.20
2016,06,15,01,25,9.20
2016,06,15,01,26,9.10
2016,06,15,01,27,9.10
2016,06,15,01,28,9.10
2016,06,15,01,29,9.10
2016,06,15,01,30,9.10
2016,06,15,01,31,9.10
2016,06,15,01,32,9.10
2016,06,15,01,33,9.10
2016,06,15,01,34,9.00
2016,06,15,01,35,9.00
2016,06,15,01,36,9.00
2016,06,15,01,37,9.00
2016,06,15,01,38,9.00
2016,06,15,01,39,9.00
2016,06,15,01,40,9.00
2016,06,15,01,41,9.00
2016,06,15,01,42,8.90
2016,06,15,01,43,8.90
2016,06,15,01,44,8.90
2016,06,15,01,45,8.90
2016,06,15,01,46,8.90
2016,06,15,01,47,8.90
2016,06,15,01,48,8.80
2016,06,15,01,49,8.80
2016,06,15,01,50,8.80
2016,06,15,01,51,8.80
2016,06,15,01,52,8.80
2016,06,15,01,53,8.80
2016,06,15,01,54,8.70
2016,06,15,01,55,8.70
2016,06,15,01,56,8.70
2016,06,15,01,57,8.70
2016,06,15,01,58,8.70
2016,06,15,01,59,8.70
2016,06,15,02,00,8.70
2016,06,15,02,01,8.70
2016,06,15,02,02,8.70
2016,06,15,02,03,8.70
2016,06,15,02,04,8.70
2016,06,15,02,05,8.70
2016,06,15,02,06,8.70
2016,06,15,02,07,8.70
2016,06,15,02,08,8.70
2016,06,15,02,09,8.70
2016,06,15,02,10,8.70
2016,06,15,02,11,8.70
2016,06,15,02,12,8.80
2016,06,15,02,13,8.80
2016,06,15,02,14,8.80
2016,06,15,02,15,8.80
2016,06,15,02,16,8.80
2016,06,15,02,17,8.80
2016,06,15,02,18,8.80
2016,06,15,02,19,8.80
2016,06,15,02,20,8.80
2016,06,15,02,21,8.90
2016,06,15,02,22,8.90
2016,06,15,02,23,8.90
2016,06,15,02,24,8.90
2016,06,15,02,25,8.90
2016,06,15,02,26,8.90
2016,06,15,02,27,8.90
2016,06,15,02,28,8.90
2016,06,15,02,29,8.90
2016,06,15,02,30,8.90
2016,06,15,02,31,8.90
2016,06,15,02,32,8.90
2016,06,15,02,33,8.90
2016,06,15,02,34,8.90
2016,06,15,02,35,8.90
2016,06,15,02,36,8.90
2016,06,15,02,37,8.90
2016,06,15,02,38,8.90
2016,06,15,02,39,8.90
2016,06,15,02,40,8.90
2016,06,15,02,41,8.90
2016,06,15,02,42,8.90
2016,06,15,02,43,8.90
2016,06,15,02,44,8.90
2016,06,15,02,45,8.90
2016,06,15,02,46,8.90
2016,06,15,02,47,8.80
2016,06,15,02,48,8.80
2016,06,15,02,49,8.80
2016,06,15,02,50,8.70
2016,06,15,02,51,8.70
2016,06,15,02,52,8.70
2016,06,15,02,53,8.60
2016,06,15,02,54,8.60
2016,06,15,02,55,8.60
2016,06,15,02,56,8.50
2016,06,15,02,57,8.50
2016,06,15,02,58,8.50
2016,06,15,02,59,8.40
2016,06,15,03,00,8.40
2016,06,15,03,01,8.40
2016,06,15,03,02,8.40
2016,06,15,03,03,8.40
2016,06,15,03,04,8.30
2016,06,15,03,05,8.30
2016,06,15,03,06,8.30
2016,06,15,03,07,8.30
2016,06,15,03,08,8.30
2016,06,15,03,09,8.30
2016,06,15,03,10,8.30
2016,06,15,03,11,8.30
2016,06,15,03,12,8.30
2016,06,15,03,13,8.20
2016,06,15,03,14,8.20
2016,06,15,03,15,8.20
2016,06,15,03,16,8.20
2016,06,15,03,17,8.20
2016,06,15,03,18,8.20
2016,06,15,03,19,8.20
2016,06,15,03,20,8.20
2016,06,15,03,21,8.20
2016,06,15,03,22,8.10
2016,06,15,03,23,8.10
2016,06,15,03,24,8.10
2016,06,15,03,25,8.10
2016,06,15,03,26,8.10
2016,06,15,03,27,8.00
2016,06,15,03,28,8.00
2016,06,15,03,29,8.00
2016,06,15,03,30,7.90
2016,06,15,03,31,7.90
2016,06,15,03,32,7.90
2016,06,15,03,33,7.80
2016,06,15,03,34,7.80
2016,06,15,03,35,7.80
2016,06,15,03,36,7.80
2016,06,15,03,37,7.70
2016,06,15,03,38,7.70
2016,06,15,03,39,7.70
2016,06,15,03,40,7.70
2016,06,15,03,41,7.60
2016,06,15,03,42,7.60
2016,06,15,03,43,7.60
2016,06,15,03,44,7.60
2016,06,15,03,45,7.60
2016,06,15,03,46,7.60
2016,06,15,03,47,7.60
2016,06,15,03,48,7.60
2016,06,15,03,49,7.50
2016,06,15,03,50,7.50
2016,06,15,03,51,7.50
2016,06,15,03,52,7.40
2016,06,15,03,53,7.40
2016,06,15,03,54,7.40
2016,06,15,03,55,7.40
2016,06,15,03,56,7.40
2016,06,15,03,57,7.40
2016,06,15,03,58,7.30
2016,06,15,03,59,7.30
2016,06,15,04,00,7.30
2016,06,15,04,01,7.20
2016,06,15,04,02,7.20
2016,06,15,04,03,7.20
2016,06,15,04,04,7.20
2016,06,15,04,05,7.20
2016,06,15,04,06,7.20
2016,06,15,04,07,7.10
2016,06,15,04,08,7.10
2016,06,15,04,09,7.10
2016,06,15,04,10,7.10
2016,06,15,04,11,7.10
2016,06,15,04,12,7.10
2016,06,15,04,13,7.10
2016,06,15,04,14,7.10
2016,06,15,04,15,7.00
2016,06,15,04,16,7.00
2016,06,15,04,17,7.00
2016,06,15,04,18,6.90
2016,06,15,04,19,6.90
2016,06,15,04,20,6.90
2016,06,15,04,21,6.90
2016,06,15,04,22,6.80
2016,06,15,04,23,6.80
2016,06,15,04,24,6.80
2016,06,15,04,25,6.80
2016,06,15,04,26,6.70
2016,06,15,04,27,6.70
2016,06,15,04,28,6.70
2016,06,15,04,29,6.70
2016,06,15,04,30,6.70
2016,06,15,04,31,6.70
2016,06,15,04,32,6.70
2016,06,15,04,33,6.70
2016,06,15,04,34,6.60
2016,06,15,04,35,6.60
2016,06,15,04,36,6.60
2016,06,15,04,37,6.60
2016,06,15,04,38,6.60
2016,06,15,04,39,6.60
2016,06,15,04,40,6.50
2016,06,15,04,41,6.50
2016,06,15,04,42,6.50
2016,06,15,04,43,6.50
2016,06,15,04,44,6.40
2016,06,15,04,45,6.40
2016,06,15,04,46,6.40
2016,06,15,04,47,6.40
2016,06,15,04,48,6.40
2016,06,15,04,49,6.30
2016,06,15,04,50,6.30
2016,06,15,04,51,6.30
2016,06,15,04,52,6.30
2016,06,15,04,53,6.30
2016,06,15,04,54,6.30
2016,06,15,04,55,6.30
2016,06,15,04,56,6.20
2016,06,15,04,57,6.20
2016,06,15,04,58,6.20
2016,06,15,04,59,6.20
2016,06,15,05,00,6.20
2016,06,15,05,01,6.20
2016,06,15,05,02,6.20
2016,06,15,05,03,6.20
2016,06,15,05,04,6.20
2016,06,15,05,05,6.20
2016,06,15,05,06,6.10
2016,06,15,05,07,6.10
2016,06,15,05,08,6.10
2016,06,15,05,09,6.10
2016,06,15,05,10,6.10
2016,06,15,05,11,6.00
2016,06,15,05,12,6.00
2016,06,15,05,13,6.00
2016,06,15,05,14,6.00
2016,06,15,05,15,6.00
2016,06,15,05,16,6.00
2016,06,15,05,17,5.90
2016,06,15,05,18,5.90
2016,06,15,05,19,5.90
2016,06,15,05,20,5.90
2016,06,15,05,21,5.90
2016,06,15,05,22,5.90
2016,06,15,05,23,5.80
2016,06,15,05,24,5.80
2016,06,15,05,25,5.80
2016,06,15,05,26,5.80
2016,06,15,05,27,5.80
2016,06,15,05,28,5.80
2016,06,15,05,29,5.80
2016,06,15,05,30,5.70
2016,06,15,05,31,5.70
2016,06,15,05,32,5.70
2016,06,15,05,33,5.70
2016,06,15,05,34,5.70
2016,06,15,05,35,5.70
2016,06,15,05,36,5.70
2016,06,15,05,37,5.70
2016,06,15,05,38,5.70
2016,06,15,05,39,5.70
2016,06,15,05,40,5.70
2016,06,15,05,41,5.70
2016,06,15,05,42,5.70
2016,06,15,05,43,5.70
2016,06,15,05,44,5.70
2016,06,15,05,45,5.70
2016,06,15,05,46,5.70
2016,06,15,05,47,5.70
2016,06,15,05,48,5.70
2016,06,15,05,49,5.70
2016,06,15,05,50,5.70
2016,06,15,05,51,5.70
2016,06,15,05,52,5.70
2016,06,15,05,53,5.70
2016,06,15,05,54,5.70
2016,06,15,05,55,5.70
2016,06,15,05,56,5.60
2016,06,15,05,57,5.60
2016,06,15,05,58,5.60
2016,06,15,05,59,5.60
2016,06,15,06,00,5.60
2016,06,15,06,01,5.60
2016,06,15,06,02,5.60
2016,06,15,06,03,5.60
2016,06,15,06,04,5.60
2016,06,15,06,05,5.60
2016,06,15,06,06,5.60
2016,06,15,06,07,5.60
2016,06,15,06,08,5.60
2016,06,15,06,09,5.60
2016,06,15,06,10,5.60
2016,06,15,06,11,5.60
2016,06,15,06,12,5.60
2016,06,15,06,13,5.60
2016,06,15,06,14,5.60
2016,06,15,06,15,5.60
2016,06,15,06,16,5.70
2016,06,15,06,17,5.70
2016,06,15,06,18,5.70
2016,06,15,06,19,5.80
2016,06,15,06,20,5.80
2016,06,15,06,21,5.80
2016,06,15,06,22,5.90
2016,06,15,06,23,5.90
2016,06,15,06,24,5.90
2016,06,15,06,25,5.90
2016,06,15,06,26,6.00
2016,06,15,06,27,6.00
2016,06,15,06,28,6.10
2016,06,15,06,29,6.10
2016,06,15,06,30,6.20
2016,06,15,06,31,6.20
2016,06,15,06,32,6.30
2016,06,15,06,33,6.30
2016,06,15,06,34,6.40
2016,06,15,06,35,6.40
2016,06,15,06,36,6.50
2016,06,15,06,37,6.50
2016,06,15,06,38,6.60
2016,06,15,06,39,6.60
2016,06,15,06,40,6.60
2016,06,15,06,41,6.70
2016,06,15,06,42,6.70
2016,06,15,06,43,6.70
2016,06,15,06,44,6.80
2016,06,15,06,45,6.80
2016,06,15,06,46,6.90
2016,06,15,06,47,6.90
2016,06,15,06,48,7.00
2016,06,15,06,49,7.10
2016,06,15,06,50,7.10
2016,06,15,06,51,7.20
2016,06,15,06,52,7.20
2016,06,15,06,53,7.30
2016,06,15,06,54,7.30
2016,06,15,06,55,7.40
2016,06,15,06,56,7.40
2016,06,15,06,57,7.50
2016,06,15,06,58,7.50
2016,06,15,06,59,7.60
2016,06,15,07,00,7.60
2016,06,15,07,01,7.70
2016,06,15,07,02,7.70
2016,06,15,07,03,7.80
2016,06,15,07,04,7.80
2016,06,15,07,05,7.80
2016,06,15,07,06,7.90
2016,06,15,07,07,7.90
2016,06,15,07,08,8.00
2016,06,15,07,09,8.00
2016,06,15,07,10,8.00
2016,06,15,07,11,8.00
2016,06,15,07,12,8.00
2016,06,15,07,13,8.00
2016,06,15,07,14,8.20
2016,06,15,07,15,8.30
2016,06,15,07,16,8.30
2016,06,15,07,17,8.40
2016,06,15,07,18,8.40
2016,06,15,07,19,8.50
2016,06,15,07,20,8.50
2016,06,15,07,21,8.60
2016,06,15,07,22,8.60
2016,06,15,07,23,8.70
2016,06,15,07,24,8.80
2016,06,15,07,25,8.80
2016,06,15,07,26,8.90
2016,06,15,07,27,9.00
2016,06,15,07,28,9.00
2016,06,15,07,29,9.10
2016,06,15,07,30,9.20
2016,06,15,07,31,9.30
2016,06,15,07,32,9.30
2016,06,15,07,33,9.30
2016,06,15,07,34,9.40
2016,06,15,07,35,9.40
2016,06,15,07,36,9.40
2016,06,15,07,37,9.40
2016,06,15,07,38,9.50
2016,06,15,07,39,9.60
2016,06,15,07,40,9.60
2016,06,15,07,41,9.60
2016,06,15,07,42,9.60
2016,06,15,07,43,9.70
2016,06,15,07,44,9.70
2016,06,15,07,45,9.70
2016,06,15,07,46,9.70
2016,06,15,07,47,9.70
2016,06,15,07,48,9.80
2016,06,15,07,49,9.80
2016,06,15,07,50,9.80
2016,06,15,07,51,9.80
2016,06,15,07,52,9.80
2016,06,15,07,53,9.80
2016,06,15,07,54,9.80
2016,06,15,07,55,9.90
2016,06,15,07,56,10.00
2016,06,15,07,57,10.00
2016,06,15,07,58,10.10
2016,06,15,07,59,10.10
2016,06,15,08,00,10.20
2016,06,15,08,01,10.20
2016,06,15,08,02,10.30
2016,06,15,08,03,10.30
2016,06,15,08,04,10.40
2016,06,15,08,05,10.40
2016,06,15,08,06,10.40
2016,06,15,08,07,10.40
2016,06,15,08,08,10.40
2016,06,15,08,09,10.40
2016,06,15,08,10,10.40
2016,06,15,08,11,10.50
2016,06,15,08,12,10.60
2016,06,15,08,13,10.70
2016,06,15,08,14,10.70
2016,06,15,08,15,10.70
2016,06,15,08,16,10.70
2016,06,15,08,17,10.70
2016,06,15,08,18,10.70
2016,06,15,08,19,10.70
2016,06,15,08,20,10.70
2016,06,15,08,21,10.80
2016,06,15,08,22,10.80
2016,06,15,08,23,10.90
2016,06,15,08,24,10.90
2016,06,15,08,25,10.90
2016,06,15,08,26,10.90
2016,06,15,08,27,10.80
2016,06,15,08,28,10.80
2016,06,15,08,29,10.80
2016,06,15,08,30,10.80
2016,06,15,08,31,10.90
2016,06,15,08,32,11.00
2016,06,15,08,33,11.00
2016,06,15,08,34,11.10
2016,06,15,08,35,11.10
2016,06,15,08,36,11.10
2016,06,15,08,37,11.10
2016,06,15,08,38,11.10
2016,06,15,08,39,11.10
2016,06,15,08,40,11.20
2016,06,15,08,41,11.30
2016,06,15,08,42,11.40
2016,06,15,08,43,11.40
2016,06,15,08,44,11.40
2016,06,15,08,45,11.50
2016,06,15,08,46,11.50
2016,06,15,08,47,11.40
2016,06,15,08,48,11.50
2016,06,15,08,49,11.40
2016,06,15,08,50,11.40
2016,06,15,08,51,11.40
2016,06,15,08,52,11.40
2016,06,15,08,53,11.40
2016,06,15,08,54,11.40
2016,06,15,08,55,11.50
2016,06,15,08,56,11.50
2016,06,15,08,57,11.60
2016,06,15,08,58,11.60
2016,06,15,08,59,11.70
2016,06,15,09,00,11.90
2016,06,15,09,01,12.00
2016,06,15,09,02,12.00
2016,06,15,09,03,12.00
2016,06,15,09,04,12.00
2016,06,15,09,05,12.00
2016,06,15,09,06,12.10
2016,06,15,09,07,12.10
2016,06,15,09,08,12.20
2016,06,15,09,09,12.20
2016,06,15,09,10,12.20
2016,06,15,09,11,12.20
2016,06,15,09,12,12.30
2016,06,15,09,13,12.30
2016,06,15,09,14,12.30
2016,06,15,09,15,12.40
2016,06,15,09,16,12.50
2016,06,15,09,17,12.50
2016,06,15,09,18,12.60
2016,06,15,09,19,12.70
2016,06,15,09,20,12.80
2016,06,15,09,21,12.90
2016,06,15,09,22,12.90
2016,06,15,09,23,12.90
2016,06,15,09,24,12.80
2016,06,15,09,25,12.80
2016,06,15,09,26,12.80
2016,06,15,09,27,12.80
2016,06,15,09,28,12.80
2016,06,15,09,29,12.80
2016,06,15,09,30,12.80
2016,06,15,09,31,12.80
2016,06,15,09,32,12.80
2016,06,15,09,33,12.80
2016,06,15,09,34,12.80
2016,06,15,09,35,12.80
2016,06,15,09,36,12.80
2016,06,15,09,37,12.80
2016,06,15,09,38,12.80
2016,06,15,09,39,12.80
2016,06,15,09,40,12.80
2016,06,15,09,41,12.90
2016,06,15,09,42,12.90
2016,06,15,09,43,13.00
2016,06,15,09,44,13.00
2016,06,15,09,45,13.00
2016,06,15,09,46,12.90
2016,06,15,09,47,12.90
2016,06,15,09,48,12.90
2016,06,15,09,49,12.90
2016,06,15,09,50,12.90
2016,06,15,09,51,12.90
2016,06,15,09,52,12.90
2016,06,15,09,53,12.90
2016,06,15,09,54,12.90
2016,06,15,09,55,13.00
2016,06,15,09,56,13.10
2016,06,15,09,57,13.10
2016,06,15,09,58,13.20
2016,06,15,09,59,13.20
2016,06,15,10,00,13.30
2016,06,15,10,01,13.30
2016,06,15,10,02,13.30
2016,06,15,10,03,13.30
2016,06,15,10,04,13.30
2016,06,15,10,05,13.30
2016,06,15,10,06,13.30
2016,06,15,10,07,13.40
2016,06,15,10,08,13.40
2016,06,15,10,09,13.50
2016,06,15,10,10,13.50
2016,06,15,10,11,13.60
2016,06,15,10,12,13.70
2016,06,15,10,13,13.80
2016,06,15,10,14,13.80
2016,06,15,10,15,13.90
2016,06,15,10,16,14.00
2016,06,15,10,17,14.10
2016,06,15,10,18,14.20
2016,06,15,10,19,14.30
2016,06,15,10,20,14.40
2016,06,15,10,21,14.50
2016,06,15,10,22,14.50
2016,06,15,10,23,14.50
2016,06,15,10,24,14.50
2016,06,15,10,25,14.60
2016,06,15,10,26,14.60
2016,06,15,10,27,14.60
2016,06,15,10,28,14.60
2016,06,15,10,29,14.70
2016,06,15,10,30,14.80
2016,06,15,10,31,14.80
2016,06,15,10,32,14.90
2016,06,15,10,33,15.00
2016,06,15,10,34,15.10
2016,06,15,10,35,15.20
2016,06,15,10,36,15.20
2016,06,15,10,37,15.10
2016,06,15,10,38,15.10
2016,06,15,10,39,15.00
2016,06,15,10,40,14.90
2016,06,15,10,41,14.80
2016,06,15,10,42,14.80
2016,06,15,10,43,14.80
2016,06,15,10,44,14.70
2016,06,15,10,45,14.60
2016,06,15,10,46,14.50
2016,06,15,10,47,14.50
2016,06,15,10,48,14.40
2016,06,15,10,49,14.40
2016,06,15,10,50,14.40
2016,06,15,10,51,14.40
2016,06,15,10,52,14.50
2016,06,15,10,53,14.60
2016,06,15,10,54,14.60
2016,06,15,10,55,14.60
2016,06,15,10,56,14.60
2016,06,15,10,57,14.60
2016,06,15,10,58,14.60
2016,06,15,10,59,14.60
2016,06,15,11,00,14.50
2016,06,15,11,01,14.50
2016,06,15,11,02,14.50
2016,06,15,11,03,14.50
2016,06,15,11,04,14.60
2016,06,15,11,05,14.80
2016,06,15,11,06,14.90
2016,06,15,11,07,14.90
2016,06,15,11,08,14.90
2016,06,15,11,09,14.80
2016,06,15,11,10,14.70
2016,06,15,11,11,14.70
2016,06,15,11,12,14.70
2016,06,15,11,13,14.80
2016,06,15,11,14,14.90
2016,06,15,11,15,15.00
2016,06,15,11,16,15.00
2016,06,15,11,17,15.10
2016,06,15,11,18,15.10
2016,06,15,11,19,15.10
2016,06,15,11,20,15.20
2016,06,15,11,21,15.20
2016,06,15,11,22,15.30
2016,06,15,11,23,15.30
2016,06,15,11,24,15.40
2016,06,15,11,25,15.40
2016,06,15,11,26,15.40
2016,06,15,11,27,15.50
2016,06,15,11,28,15.50
2016,06,15,11,29,15.50
2016,06,15,11,30,15.50
2016,06,15,11,31,15.50
2016,06,15,11,32,15.40
2016,06,15,11,33,15.40
2016,06,15,11,34,15.40
2016,06,15,11,35,15.40
2016,06,15,11,36,15.40
2016,06,15,11,37,15.50
2016,06,15,11,38,15.60
2016,06,15,11,39,15.80
2016,06,15,11,40,15.80
2016,06,15,11,41,15.80
2016,06,15,11,42,15.70
2016,06,15,11,43,15.70
2016,06,15,11,44,15.80
2016,06,15,11,45,15.80
2016,06,15,11,46,15.80
2016,06,15,11,47,15.80
2016,06,15,11,48,15.80
2016,06,15,11,49,15.60
2016,06,15,11,50,15.50
2016,06,15,11,51,15.20
2016,06,15,11,52,15.00
2016,06,15,11,53,14.90
2016,06,15,11,54,14.80
2016,06,15,11,55,14.60
2016,06,15,11,56,14.40
2016,06,15,11,57,14.30
2016,06,15,11,58,14.20
2016,06,15,11,59,14.10
2016,06,15,12,00,14.10
2016,06,15,12,01,14.00
2016,06,15,12,02,14.00
2016,06,15,12,03,13.90
2016,06,15,12,04,13.90
2016,06,15,12,05,13.80
2016,06,15,12,06,13.80
2016,06,15,12,07,13.80
2016,06,15,12,08,13.90
2016,06,15,12,09,13.90
2016,06,15,12,10,13.90
2016,06,15,12,11,14.00
2016,06,15,12,12,14.00
2016,06,15,12,13,14.10
2016,06,15,12,14,14.10
2016,06,15,12,15,14.10
2016,06,15,12,16,14.10
2016,06,15,12,17,14.10
2016,06,15,12,18,14.00
2016,06,15,12,19,14.00
2016,06,15,12,20,14.00
2016,06,15,12,21,14.00
2016,06,15,12,22,14.10
2016,06,15,12,23,14.10
2016,06,15,12,24,14.10
2016,06,15,12,25,14.10
2016,06,15,12,26,14.10
2016,06,15,12,27,14.00
2016,06,15,12,28,14.00
2016,06,15,12,29,13.90
2016,06,15,12,30,13.90
2016,06,15,12,31,13.90
2016,06,15,12,32,13.90
2016,06,15,12,33,13.90
2016,06,15,12,34,14.00
2016,06,15,12,35,13.90
2016,06,15,12,36,13.80
2016,06,15,12,37,13.70
2016,06,15,12,38,13.70
2016,06,15,12,39,13.70
2016,06,15,12,40,13.70
2016,06,15,12,41,13.80
2016,06,15,12,42,13.80
2016,06,15,12,43,13.80
2016,06,15,12,44,13.90
2016,06,15,12,45,13.90
2016,06,15,12,46,13.80
2016,06,15,12,47,13.70
2016,06,15,12,48,13.70
2016,06,15,12,49,13.50
2016,06,15,12,50,13.30
2016,06,15,12,51,13.20
2016,06,15,12,52,13.00
2016,06,15,12,53,13.00
2016,06,15,12,54,12.90
2016,06,15,12,55,12.90
2016,06,15,12,56,12.80
2016,06,15,12,57,12.80
2016,06,15,12,58,12.80
2016,06,15,12,59,12.70
2016,06,15,13,00,12.60
2016,06,15,13,01,12.50
2016,06,15,13,02,12.50
2016,06,15,13,03,12.50
2016,06,15,13,04,12.50
2016,06,15,13,05,12.50
2016,06,15,13,06,12.60
2016,06,15,13,07,12.70
2016,06,15,13,08,12.90
2016,06,15,13,09,13.00
2016,06,15,13,10,13.10
2016,06,15,13,11,13.20
2016,06,15,13,12,13.20
2016,06,15,13,13,13.30
2016,06,15,13,14,13.40
2016,06,15,13,15,13.50
2016,06,15,13,16,13.70
2016,06,15,13,17,13.80
2016,06,15,13,18,14.00
2016,06,15,13,19,14.20
2016,06,15,13,20,14.30
2016,06,15,13,21,14.30
2016,06,15,13,22,14.20
2016,06,15,13,23,14.20
2016,06,15,13,24,14.30
2016,06,15,13,25,14.30
2016,06,15,13,26,14.30
2016,06,15,13,27,14.30
2016,06,15,13,28,14.30
2016,06,15,13,29,14.40
2016,06,15,13,30,14.40
2016,06,15,13,31,14.40
2016,06,15,13,32,14.30
2016,06,15,13,33,14.30
2016,06,15,13,34,14.30
2016,06,15,13,35,14.30
2016,06,15,13,36,14.40
2016,06,15,13,37,14.40
2016,06,15,13,38,14.50
2016,06,15,13,39,14.60
2016,06,15,13,40,14.70
2016,06,15,13,41,14.80
2016,06,15,13,42,14.80
2016,06,15,13,43,14.70
2016,06,15,13,44,14.70
2016,06,15,13,45,14.80
2016,06,15,13,46,14.80
2016,06,15,13,47,14.90
2016,06,15,13,48,14.90
2016,06,15,13,49,14.90
2016,06,15,13,50,14.80
2016,06,15,13,51,14.70
2016,06,15,13,52,14.70
2016,06,15,13,53,14.70
2016,06,15,13,54,14.80
2016,06,15,13,55,14.90
2016,06,15,13,56,15.00
2016,06,15,13,57,15.10
2016,06,15,13,58,15.10
2016,06,15,13,59,15.10
2016,06,15,14,00,15.10
2016,06,15,14,01,15.10
2016,06,15,14,02,15.10
2016,06,15,14,03,15.10
2016,06,15,14,04,15.10
2016,06,15,14,05,15.10
2016,06,15,14,06,15.10
2016,06,15,14,07,15.10
2016,06,15,14,08,15.20
2016,06,15,14,09,15.20
2016,06,15,14,10,15.30
2016,06,15,14,11,15.40
2016,06,15,14,12,15.40
2016,06,15,14,13,15.40
2016,06,15,14,14,15.50
2016,06,15,14,15,15.50
2016,06,15,14,16,15.50
2016,06,15,14,17,15.50
2016,06,15,14,18,15.60
2016,06,15,14,19,15.70
2016,06,15,14,20,15.60
2016,06,15,14,21,15.60
2016,06,15,14,22,15.60
2016,06,15,14,23,15.60
2016,06,15,14,24,15.60
2016,06,15,14,25,15.60
2016,06,15,14,26,15.60
2016,06,15,14,27,15.60
2016,06,15,14,28,15.60
2016,06,15,14,29,15.50
2016,06,15,14,30,15.40
2016,06,15,14,31,15.30
2016,06,15,14,32,15.30
2016,06,15,14,33,15.40
2016,06,15,14,34,15.40
2016,06,15,14,35,15.50
2016,06,15,14,36,15.50
2016,06,15,14,37,15.70
2016,06,15,14,38,15.80
2016,06,15,14,39,15.80
2016,06,15,14,40,15.80
2016,06,15,14,41,15.70
2016,06,15,14,42,15.70
2016,06,15,14,43,15.70
2016,06,15,14,44,15.60
2016,06,15,14,45,15.60
2016,06,15,14,46,15.70
2016,06,15,14,47,15.70
2016,06,15,14,48,15.70
2016,06,15,14,49,15.70
2016,06,15,14,50,15.70
2016,06,15,14,51,15.70
2016,06,15,14,52,15.70
2016,06,15,14,53,15.70
2016,06,15,14,54,15.70
2016,06,15,14,55,15.70
2016,06,15,14,56,15.80
2016,06,15,14,57,16.00
2016,06,15,14,58,16.10
2016,06,15,14,59,16.20
2016,06,15,15,00,16.20
2016,06,15,15,01,16.30
2016,06,15,15,02,16.20
2016,06,15,15,03,15.90
2016,06,15,15,04,15.70
2016,06,15,15,05,15.60
2016,06,15,15,06,15.50
2016,06,15,15,07,15.40
2016,06,15,15,08,15.30
2016,06,15,15,09,15.20
2016,06,15,15,10,15.20
2016,06,15,15,11,15.10
2016,06,15,15,12,15.10
2016,06,15,15,13,14.90
2016,06,15,15,14,14.80
2016,06,15,15,15,14.80
2016,06,15,15,16,14.80
2016,06,15,15,17,14.70
2016,06,15,15,18,14.70
2016,06,15,15,19,14.70
2016,06,15,15,20,14.70
2016,06,15,15,21,14.60
2016,06,15,15,22,14.60
2016,06,15,15,23,14.60
2016,06,15,15,24,14.60
2016,06,15,15,25,14.50
2016,06,15,15,26,14.50
2016,06,15,15,27,14.50
2016,06,15,15,28,14.50
2016,06,15,15,29,14.50
2016,06,15,15,30,14.50
2016,06,15,15,31,14.60
2016,06,15,15,32,14.60
2016,06,15,15,33,14.70
2016,06,15,15,34,14.70
2016,06,15,15,35,14.70
2016,06,15,15,36,14.70
2016,06,15,15,37,14.70
2016,06,15,15,38,14.70
2016,06,15,15,39,14.70
2016,06,15,15,40,14.80
2016,06,15,15,41,14.80
2016,06,15,15,42,14.90
2016,06,15,15,43,15.00
2016,06,15,15,44,15.10
2016,06,15,15,45,15.20
2016,06,15,15,46,15.20
2016,06,15,15,47,15.20
2016,06,15,15,48,15.30
2016,06,15,15,49,15.30
2016,06,15,15,50,15.30
2016,06,15,15,51,15.20
2016,06,15,15,52,15.20
2016,06,15,15,53,15.20
2016,06,15,15,54,15.20
2016,06,15,15,55,15.30
2016,06,15,15,56,15.30
2016,06,15,15,57,15.30
2016,06,15,15,58,15.30
2016,06,15,15,59,15.40
2016,06,15,16,00,15.50
2016,06,15,16,01,15.60
2016,06,15,16,02,15.60
2016,06,15,16,03,15.70
2016,06,15,16,04,15.80
2016,06,15,16,05,15.80
2016,06,15,16,06,15.90
2016,06,15,16,07,15.90
2016,06,15,16,08,15.90
2016,06,15,16,09,15.80
2016,06,15,16,10,15.90
2016,06,15,16,11,16.00
2016,06,15,16,12,16.20
2016,06,15,16,13,16.30
2016,06,15,16,14,16.40
2016,06,15,16,15,16.40
2016,06,15,16,16,16.40
2016,06,15,16,17,16.40
2016,06,15,16,18,16.40
2016,06,15,16,19,16.30
2016,06,15,16,20,16.20
2016,06,15,16,21,16.10
2016,06,15,16,22,16.10
2016,06,15,16,23,16.20
2016,06,15,16,24,16.30
2016,06,15,16,25,16.30
2016,06,15,16,26,16.30
2016,06,15,16,27,16.30
2016,06,15,16,28,16.30
2016,06,15,16,29,16.30
2016,06,15,16,30,16.40
2016,06,15,16,31,16.30
2016,06,15,16,32,16.20
2016,06,15,16,33,16.20
2016,06,15,16,34,16.20
2016,06,15,16,35,16.20
2016,06,15,16,36,16.20
2016,06,15,16,37,16.20
2016,06,15,16,38,16.20
2016,06,15,16,39,16.20
2016,06,15,16,40,16.10
2016,06,15,16,41,16.00
2016,06,15,16,42,15.90
2016,06,15,16,43,15.90
2016,06,15,16,44,15.90
2016,06,15,16,45,16.00
2016,06,15,16,46,16.10
2016,06,15,16,47,16.10
2016,06,15,16,48,16.10
2016,06,15,16,49,16.20
2016,06,15,16,50,16.20
2016,06,15,16,51,16.20
2016,06,15,16,52,16.30
2016,06,15,16,53,16.30
2016,06,15,16,54,16.30
2016,06,15,16,55,16.30
2016,06,15,16,56,16.30
2016,06,15,16,57,16.30
2016,06,15,16,58,16.30
2016,06,15,16,59,16.30
2016,06,15,17,00,16.30
2016,06,15,17,01,16.40
2016,06,15,17,02,16.40
2016,06,15,17,03,16.50
2016,06,15,17,04,16.60
2016,06,15,17,05,16.60
2016,06,15,17,06,16.60
2016,06,15,17,07,16.60
2016,06,15,17,08,16.60
2016,06,15,17,09,16.60
2016,06,15,17,10,16.60
2016,06,15,17,11,16.60
2016,06,15,17,12,16.60
2016,06,15,17,13,16.60
2016,06,15,17,14,16.70
2016,06,15,17,15,16.80
2016,06,15,17,16,16.80
2016,06,15,17,17,16.80
2016,06,15,17,18,16.70
2016,06,15,17,19,16.70
2016,06,15,17,20,16.60
2016,06,15,17,21,16.70
2016,06,15,17,22,16.70
2016,06,15,17,23,16.70
2016,06,15,17,24,16.70
2016,06,15,17,25,16.70
2016,06,15,17,26,16.80
2016,06,15,17,27,16.80
2016,06,15,17,28,16.80
2016,06,15,17,29,16.90
2016,06,15,17,30,16.90
2016,06,15,17,31,17.00
2016,06,15,17,32,17.00
2016,06,15,17,33,17.00
2016,06,15,17,34,17.00
2016,06,15,17,35,17.10
2016,06,15,17,36,17.10
2016,06,15,17,37,17.10
2016,06,15,17,38,17.20
2016,06,15,17,39,17.30